Home   Weather   Zielona Góra   Past weeks

Flag for Poland Past Weather in Zielona Góra, Poland — Yesterday and Last 2 Weeks

41 °F


Feels Like: 41 °F
Forecast: 41 / 50 °F
Wind: 2 mph from North

Location: Zielona Gora

Current Time: Oct 26, 2016 at 5:58:55 AM

Latest Report: Oct 26, 2016 at 5:00 AM

Visibility: 0 mi

Pressure: 30.36 "Hg

Humidity: 100%

Dew Point: 41 °F

Location of Zielona GóraLocation

Past Weather in Zielona Góra — Graph


Zielona Góra Temperature Yesterday

Maximum temperature yesterday: 50 °F (at 3:00 PM)
Minimum temperature yesterday: 46 °F (at 11:00 PM)
Average temperature yesterday: 48 °F

High & Low Weather Summary for the Past Weeks

High53 °F (Oct 24, 3:00 PM)100% (Oct 12, 7:00 AM)30.37 "Hg (Oct 12, 7:00 AM)
Low35 °F (Oct 14, 8:00 AM)67% (Oct 23, 4:00 PM)29.91 "Hg (Oct 15, 8:00 AM)
Average45 °F94%30.10 "Hg
* Reported Oct 11 3:00 AM — Oct 26 3:00 AM, Zielona Góra, Weather by CustomWeather, © 2016

Note: Actual official high and low records may vary slightly from our data, if they occured in-between our weather recording intervals... More about our weather records


Zielona Góra Weather History for the Previous 24 Hours

Scroll right to see more
Time TempWeatherWind HumidityBarometerVisibility
3:00 AM
Wed, Oct 26
44 °FFog.2 mph100%30.33 "Hg1 mi
2:00 AM44 °FFog.2 mph100%30.31 "Hg1 mi
1:00 AM44 °FFog.1 mph100%30.31 "Hg1 mi
12:00 AM45 °FFog.1 mph99%30.30 "Hg1 mi
11:00 PM
Tue, Oct 25
46 °FFog.2 mph98%30.29 "Hg1 mi
10:00 PM47 °FFog.2 mph98%30.28 "Hg2 mi
9:00 PM47 °FFog.2 mph99%30.26 "Hg1 mi
8:00 PM48 °FLow clouds.3 mph99%30.25 "Hg1 mi
7:00 PM48 °FFog.3 mph97%30.23 "Hg2 mi
6:00 PM49 °FFog.2 mph97%30.21 "Hg3 mi
5:00 PM50 °FOvercast.3 mph95%30.19 "Hg5 mi
4:00 PM50 °FLow clouds.2 mph95%30.18 "Hg6 mi
3:00 PM50 °FLow clouds.2 mph94%30.16 "Hg7 mi
2:00 PM50 °FFog.2 mph98%30.15 "Hg5 mi
1:00 PM49 °FFog.2 mph99%30.14 "Hg4 mi
12:00 PM48 °FLow clouds.2 mph100%30.12 "Hg3 mi
11:00 AM48 °FLight rain. Low clouds.2 mph100%30.10 "Hg1 mi
10:00 AM48 °FLight rain. Low clouds.3 mph100%30.09 "Hg1 mi
9:00 AM48 °FLight rain. Low clouds.2 mph100%30.07 "Hg1 mi
8:00 AM48 °FLight rain. Low clouds.2 mph100%30.03 "Hg1 mi
7:00 AM48 °FLight rain. Dense fog.2 mph100%30.02 "Hg0 mi
6:00 AM49 °FLight rain. Low clouds.1 mph100%30.00 "Hg1 mi
5:00 AM49 °FLight rain. Low clouds.1 mph100%29.98 "Hg1 mi
Weather by CustomWeather, © 2016

See weather overviewHow to use our weather pages